Погода в Сухиничи

Погода в Сухиничи : погода сейчас, прогноз погоды и архив. Всё, что Вы хотите узнать о погоде в Сухиничи!

Хотите узнать прогноз погоды в Сухиничи? Тогда Вам сюда: Погода в Сухиничи

Поиск расширенной информации на нашем сайте:

Полезная информация:

Другие новости

Новости СМИ2

Главная страница сайта

Новости сайта

03.07.2017

Напоминаем, что на нашем специализированном сайте Метеоцентр.Азия вы можете получить высокодетализированные автоматические прогнозы погоды по пунктам России, СНГ и мира в авиационном формате (включающие направление и скорость ветра, видимость, явления погоды, количество и форму облачности, нижнюю и верхнюю границу облачности).

Рекомендуем:

Погода в Сухиничи - сегодня

Время (UTC), дата Ветер
(°,м/с) 
Видим.   Явления Облачность Т
(°С)
Тd
(°С)
f(%) Тe
(°С)
Pmin
(гПа)
dP
(гПа)
Po
(мм)
O2
(г/м3)
Тmin Tmax R s Состояние
почвы
00 22.05.19 180 (Ю) 25000 м    5/0 верхняя 
[Ci fib]
+14.2 +6.4 59 +15  1014.4  -1.1  740  282           
03 22.05.19 тихо ()   25000 м    8/8 2000 м средняя 
[Ac As]
+13.8 +7.6 66 +14  1013.4  -0.9  739  282  +12.2         
06 22.05.19 050 (СВ) 25000 м    10/6 600 м средняя 
[Sc|Ac As]
+16.6 +10 65 +19  1012.5  -0.6  739  279  +12.2         
09 22.05.19 140 (ЮВ) 40000 м    9/3 1000 м средняя, верхняя 
[Cu hum|Ac trans|Cc]
+20.7 +9.6 49 +22  1011  -1.1  738  275           
12 22.05.19 140 (ЮВ) 40000 м    9/6 600 м средняя 
[Cu Sc|Ac cast]
+20.7 +11.4 55 +24  1010.1  -0.9  737  274           
15 22.05.19 тихо ()   40000 м    6/3 1000 м средняя, верхняя 
[Cu med, cong|Ac lent|Ci fib]
+22.6 +11.7 50 +26  1008.4  -1.5  736  272           
18 22.05.19 280 (З) 30000 м    8/8 600 м кучево-дожд. 
[Cb cap]
+17.5 +12.2 71 +24  1008.7  -0.1  736  276    +23.3       
21 22.05.19 тихо ()   18000 м    8/8 2000 м средняя 
[Ac As]
+13.9 +11 83 +17  1008.3  -0.8  735  280           
00 23.05.19 240 (ЮЗ) 8000 м  дымка  3/0 верхняя 
[Ci fib]
+11.7 +11 95 +16  1007.9  -0.6  735  282           
03 23.05.19 270 (З) 7000 м  дымка  6/4 2000 м средняя, верхняя 
[Ac trans|Cc]
+13.1 +12.3 95 +19  1007.1  -0.5  734  280  +10.8         
06 23.05.19 240 (ЮЗ) 28000 м    3/0 верхняя 
[Ci fib]
+19.3 +13.7 70 +27  1006.2  -0.3  734  274  +10.8         
09 23.05.19 270 (З) 40000 м    8/8 600 м 
[Cu med, cong]
+23.5 +12.8 51 +29  1005.7  -0.2  734  270           
12 23.05.19 290 (З) 40000 м    8/8 600 м 
[Cu med, cong]
+24.3 +10.2 41 +26  1004.2  -1.4  733  269           
15 23.05.19 240 (ЮЗ) 1{11}  10 км  гроза, ливневой дождь  9/9 600 м кучево-дожд. 
[Cb calv]
+15 +13.8 93 +23  1006.1  0.9  734  277         
18 23.05.19 240 (ЮЗ) 18000 м  слаб. ливневой дождь{гроза}  8/8 600 м кучево-дожд. 
[Cb cap]
+15.6 +12.9 84 +23  1006.1  0.2  734  277    +25.3     
21 23.05.19 тихо ()   10 км  {ливн. осадки}  ясно 
+13 +12.1 94 +18  1007.8  1.3  735  280           
00 24.05.19 050 (СВ) 8000 м  дымка{ливн. осадки}  3/0 верхняя 
[Ci fib]
+12.4 +11.9 97 +18  1008.5  0.6  735  281           
03 24.05.19 060 (СВ) 5000 м  дымка  9/9 600 м 
[Sc]
+12.2 +11.6 96 +17  1009.5  1.1  736  282  +11.7    0.4     
06 24.05.19 080 (В) 10 км    9/9 600 м 
[Sc]
+13 +11.7 92 +17  1010.9  1.5  737  281  +11.7    0.4     
09 24.05.19 110 (В) 14000 м    9/9 600 м 
[Sc]
+14.2 +12.2 88 +19  1012.4  1.4  738  280           
12 24.05.19 120 (ЮВ) 25000 м    9/8 600 м средняя 
[Sc|Ac As]
+16.9 +12.3 74 +22  1011.7  -0.4  738  278           
15 24.05.19 090 (В) 29000 м    9/6 600 м средняя 
[Sc|Ac As]
+17.6 +12 70 +22  1011.4  -0.3  738  277           
18 24.05.19 110 (В) 21000 м    9/9 2000 м средняя 
[Ac As]
+15 +11.2 78 +19  1011.5  738  280    +18.4       
21 24.05.19 100 (В) 15000 м    ясно 
+12.6 +10.1 85 +15  1011.6  -0.2  738  282           
00 25.05.19 120 (ЮВ) 20000 м    8/8 2000 м средняя 
[Ac As]
+11.8 +9 83 +12  1011.2  -0.5  737  283           
Время (UTC), дата Ветер
(°,м/с) 
Видим.   Явления Облачность Т
(°С)
Тd
(°С)
f(%) Тe
(°С)
Pmin
(гПа)
dP
(гПа)
Po
(мм)
O2
(г/м3)
Тmin Tmax R s Состояние
почвы

Для получения пояснительной информации подведите курсор к названию столбца.

ПОГОДА в Сухиничи - архив

Всё, что Вы хотите узнать о погоде в Сухиничи - удобно и подробно!

Выберите нужную дату (начиная с 1 января 2018* года) и нажмите кнопку "Найти".
Будут отображены архивные сводки погоды по пункту Сухиничи, начиная с указанной даты.


Отображать данные в формате CSV (для использования в таблицах Excel)


Внимание! Наш архив погоды предназначен исключительно для личного некоммерческого использования в познавательных целях. Если Вам необходимы официальные справки о состоянии погоды (для производственных, юридических, коммерческих и т.п. целей), обращайтесь в органы Росгидромета.

*Примечание: данная дата относится к архиву по метеостанциям СССР (Россия, СНГ, Балтия).
Архив по метеостанциям Зарубежной Европы и Азии (кроме Китая) хранится 10 дней, по другим регионам земного шара (Китай, Африка, Америка, Австралия, Океания) - 1 день.

Сухиничи - район местоположения метеостанции


Название, широта, долгота, высота метеостанции:
Сухиничи 54.1°ш. 35.3°д. 238 м над ур. моря [Российская Федерация]

Дополнительная информация

В oтличие oт бoльшинства пoгoдных сайтoв мы публикуем пoдрoбную метеoинфoрмацию в детальнoм прoфессиoнальнoм фoрмате.

Характеристики температуры и влажнoсти вoздуха измеряются на высoте 2 м в тени вдали oт зданий и деревьев.
Скoрoсть ветра измеряется на высoте 10 м (на урoвне рoста челoвека скoрoсть ветра ниже в 1.5-2 раза). Если метеoстанция нахoдится в гoрoде или в лесу, тo скoрoсть ветра занижена на 2-4 м/с пo сравнению с oткрытым местoм. Скoрoсть ветра над акватoриями крупных рек и oзёр, а также на вершинах хoлмoв на 2-5 м/с выше, чем в oбычных услoвиях.
Атмoсфернoе давление в разных тoчках местнoсти мoжет значительнo oтличаться oт давления на метеoстанции, в зависимoсти oт услoвий рельефа (при пoдъёме на 10 м давление пoнижается примернo на 1 мм рт.ст.).